SCP
0 0 -0 -0 -0 -0 -0 0 0 0 0 -0 -0 0 0 0 0 0 -0 0 0 -0 -0 -0 -0 -0 -1 -2 -3 -2 -1 -0
0 0 0 0 0 -0 -0 -0 -0 -0 0 0 0 0 0 0 0 0 0 0 0 0 0 -0 -0 -0 -0 -1 -3 -2 -1 -0
0 0 0 0 0 -0 -0 -0 0 -0 0 0 0 0 0 1 1 0 0 -0 0 0 0 0 0 -0 -0 -1 -1 -1 -1 -0
-0 -0 0 0 0 -0 -0 -0 -0 0 0 -0 0 0 0 1 1 0 0 0 1 0 1 1 0 -0 -0 -1 -2 -1 -0 0
-0 0 0 -0 -0 -0 -0 -0 -0 0 0 -0 0 0 1 1 1 0 -0 -0 0 0 0 0 -0 -1 -0 -0 -0 -0 -0 -0
-0 -0 -0 0 0 0 0 -0 -0 -0 0 0 0 0 0 0 0 0 0 0 0 0 0 2 1 -1 1 0 0 0 0 0
0 0 0 0 0 0 0 0 0 -0 0 0 0 0 1 1 1 1 1 0 0 0 1 0 0 1 2 3 3 1 2 3
-0 -0 -0 -0 -0 -0 0 -0 0 0 0 0 0 0 0 1 1 0 1 1 2 2 1 1 2 4 6 5 4 3 1 1
-0 0 0 0 -0 -0 0 0 0 0 0 0 0 0 0 0 1 0 1 1 1 1 1 1 1 2 2 4 4 3 1 0
-0 -0 0 -0 0 0 0 0 -0 0 0 0 0 0 0 0 2 1 1 1 1 0 1 0 1 0 2 2 3 2 1 1
-0 -0 0 0 0 0 0 0 0 0 0 0 0 0 0 0 1 1 0 1 1 0 1 2 2 2 1 1 1 1 1 1
0 0 0 0 0 0 0 0 0 0 0 0 0 0 0 0 0 -0 -0 0 0 0 1 2 3 2 2 1 1 1 2 1
0 0 0 0 0 0 0 0 0 0 0 0 0 0 0 0 -0 0 0 0 0 1 2 2 1 2 2 3 3 3 3 3
0 0 0 0 0 0 0 0 0 0 0 0 0 0 0 0 0 0 0 0 1 2 0 3 3 3 6 6 5 6 5 4
0 0 0 0 0 0 0 0 0 0 0 0 0 0 0 0 0 0 0 0 0 0 2 0 3 2 4 2 4 5 4 5
0 0 0 0 0 0 0 0 0 0 0 0 0 0 0 0 0 0 0 0 0 0 0 1 2 3 6 4 0 4 5 4
0 0 0 0 0 0 0 0 0 0 0 0 0 0 0 0 0 0 0 0 0 0 0 1 2 3 3 4 7 4 4 3
0 0 0 0 0 0 0 0 0 0 0 0 0 0 0 0 0 0 0 0 0 0 0 0 2 3 6 5 6 4 3 3
0 0 0 0 0 0 0 0 0 0 0 0 0 0 0 0 0 0 0 0 0 0 1 2 3 2 2 5 8 7 4 4
Wind_Speed_500mb
3 11 16 17 20 32 26 18 17 14 2 31 30 25 19 25 16 20 29 50 58 55 55 61 60 65 65 67 71 60 58 58
23 22 32 15 16 19 11 15 16 15 24 16 23 19 21 25 18 14 21 29 51 51 55 61 61 63 68 70 71 64 54 56
17 13 15 11 21 23 25 18 17 17 10 25 20 17 18 22 19 12 8 20 63 69 61 56 56 59 65 69 68 66 58 51
28 30 21 11 14 17 15 13 21 21 12 38 13 22 21 20 16 11 8 14 19 21 31 49 57 50 53 64 63 50 47 48
24 11 12 5 11 18 20 22 24 17 6 22 17 20 17 20 18 7 3 10 10 25 16 24 17 54 56 61 60 49 41 41
24 31 29 22 20 20 23 21 26 26 12 22 17 20 20 18 12 8 2 9 5 6 19 13 15 53 42 50 49 47 42 39
29 33 33 30 27 29 28 26 27 34 36 27 23 13 20 7 7 4 7 13 6 4 30 35 49 34 36 33 33 36 44 35
28 29 30 32 28 35 36 29 32 31 34 27 30 8 13 13 5 12 15 10 3 12 14 22 21 20 32 38 41 44 56 40
28 27 29 28 30 20 14 15 20 22 24 22 10 7 15 10 24 11 2 14 10 12 24 25 27 29 40 53 54 59 61 35
22 25 29 27 8 5 14 19 19 19 17 23 16 11 17 26 34 31 21 3 6 22 31 33 30 25 41 46 58 51 35 44
17 22 29 32 10 5 4 14 24 26 27 25 15 11 41 47 26 9 17 13 15 13 8 33 36 18 20 38 53 32 26 34
19 23 24 14 16 14 12 12 23 27 29 38 41 16 14 52 30 33 48 24 27 33 24 16 25 33 37 34 32 29 28 27
19 20 18 9 12 8 11 8 18 17 24 30 24 28 32 20 10 30 33 30 37 35 33 38 38 32 31 34 39 37 31 32
19 23 25 19 8 7 9 9 19 20 21 28 34 36 30 28 16 14 32 40 31 29 46 19 38 46 32 34 27 33 35 33
15 13 5 4 12 9 10 14 23 25 27 31 41 43 40 30 30 33 31 32 42 45 44 44 37 24 28 27 25 34 35 33
18 15 22 33 23 20 21 18 15 24 33 38 41 44 45 42 40 39 40 45 47 49 40 37 17 30 58 77 60 73 48 42
14 22 34 33 23 14 15 20 28 32 32 32 34 37 41 45 47 46 47 44 46 52 56 41 39 22 36 43 54 60 57 47
20 24 23 19 22 26 29 33 37 32 31 34 38 45 46 46 45 45 45 46 48 47 52 62 60 49 28 32 36 44 41 40
24 20 27 21 23 28 33 30 25 29 38 43 40 40 43 45 46 48 50 52 53 53 56 52 55 58 61 50 49 36 41 44
Wind_Direction_500mb
193 351 315 327 303 355 314 312 303 306 109 128 87 78 68 59 32 4 303 181 176 186 185 188 194 199 200 206 216 225 231 225
142 221 227 227 342 308 308 283 288 2 71 86 65 51 64 61 41 24 333 187 170 188 186 190 193 201 202 205 217 223 231 235
290 275 13 336 311 312 313 282 314 289 95 117 115 82 55 71 60 58 343 205 179 182 186 190 193 198 199 200 213 218 226 230
290 285 94 339 297 270 285 290 292 308 53 356 11 87 80 88 80 80 26 330 322 120 162 179 188 195 201 200 209 214 215 216
305 97 109 218 0 351 306 289 289 288 126 236 141 98 61 61 91 83 305 254 298 21 62 118 298 302 200 204 202 206 209 213
284 319 329 315 311 309 304 303 311 304 160 73 280 128 115 81 53 89 175 198 203 136 98 179 210 247 189 196 200 200 203 207
304 312 315 315 307 299 289 283 285 299 312 315 336 87 99 95 120 158 192 212 185 209 129 154 187 189 200 195 200 201 197 181
273 274 275 278 288 278 272 268 276 276 282 287 294 118 151 158 207 201 193 247 179 127 152 165 172 171 183 185 197 185 171 163
294 311 306 289 275 288 327 322 324 301 309 295 289 331 327 219 169 259 195 178 200 180 163 167 172 179 191 186 178 177 185 200
274 280 269 277 312 334 307 300 283 306 318 328 329 3 326 352 167 188 177 241 236 227 170 169 175 180 192 201 193 186 241 242
279 266 264 270 13 9 35 345 2 348 356 360 341 291 29 29 35 349 105 212 239 233 144 150 152 174 159 198 209 214 202 212
266 288 288 348 72 23 357 270 21 360 356 359 352 18 29 360 352 7 326 229 232 215 188 169 171 178 171 169 173 173 176 173
262 254 267 25 59 16 268 44 357 11 355 355 353 5 9 33 6 169 287 333 277 215 193 205 196 196 198 195 181 176 183 178
245 256 261 41 327 323 48 14 1 343 336 327 324 325 334 340 338 317 306 305 291 298 278 219 206 181 196 207 205 198 194 201
306 335 39 350 9 44 354 331 320 328 323 321 313 313 315 310 309 315 313 302 297 295 305 309 253 271 223 267 197 229 216 213
256 272 332 322 321 315 298 299 323 312 312 310 308 308 312 317 313 308 304 302 299 302 299 291 262 235 214 226 211 237 232 229
267 273 280 274 289 343 334 310 305 300 301 302 304 309 310 307 308 309 308 304 300 298 303 290 270 269 201 202 210 225 236 236
269 275 286 313 317 312 308 303 299 298 295 299 302 301 300 300 302 307 309 310 308 308 302 293 280 268 273 242 230 232 233 225
264 291 302 293 296 301 296 290 290 293 296 297 298 300 302 307 306 303 306 306 306 304 295 300 271 265 261 266 241 228 233 223
Wind_Speed_850mb
3 11 16 17 20 32 26 18 17 14 2 31 30 25 19 25 16 20 29 50 58 55 55 61 60 65 65 67 71 60 58 58
23 22 32 15 16 19 11 15 16 15 24 16 23 19 21 25 18 14 21 29 51 51 55 61 61 63 68 70 71 64 54 56
17 13 15 11 21 23 25 18 17 17 10 25 20 17 18 22 19 12 8 20 63 69 61 56 56 59 65 69 68 66 58 51
28 30 21 11 14 17 15 13 21 21 12 38 13 22 21 20 16 11 8 14 19 21 31 49 57 50 53 64 63 50 47 48
24 11 12 5 11 18 20 22 24 17 6 22 17 20 17 20 18 7 3 10 10 25 16 24 17 54 56 61 60 49 41 41
24 31 29 22 20 20 23 21 26 26 12 22 17 20 20 18 12 8 2 9 5 6 19 13 15 53 42 50 49 47 42 39
29 33 33 30 27 29 28 26 27 34 36 27 23 13 20 7 7 4 7 13 6 4 30 35 49 34 36 33 33 36 44 35
28 29 30 32 28 35 36 29 32 31 34 27 30 8 13 13 5 12 15 10 3 12 14 22 21 20 32 38 41 44 56 40
28 27 29 28 30 20 14 15 20 22 24 22 10 7 15 10 24 11 2 14 10 12 24 25 27 29 40 53 54 59 61 35
22 25 29 27 8 5 14 19 19 19 17 23 16 11 17 26 34 31 21 3 6 22 31 33 30 25 41 46 58 51 35 44
17 22 29 32 10 5 4 14 24 26 27 25 15 11 41 47 26 9 17 13 15 13 8 33 36 18 20 38 53 32 26 34
19 23 24 14 16 14 12 12 23 27 29 38 41 16 14 52 30 33 48 24 27 33 24 16 25 33 37 34 32 29 28 27
19 20 18 9 12 8 11 8 18 17 24 30 24 28 32 20 10 30 33 30 37 35 33 38 38 32 31 34 39 37 31 32
19 23 25 19 8 7 9 9 19 20 21 28 34 36 30 28 16 14 32 40 31 29 46 19 38 46 32 34 27 33 35 33
15 13 5 4 12 9 10 14 23 25 27 31 41 43 40 30 30 33 31 32 42 45 44 44 37 24 28 27 25 34 35 33
18 15 22 33 23 20 21 18 15 24 33 38 41 44 45 42 40 39 40 45 47 49 40 37 17 30 58 77 60 73 48 42
14 22 34 33 23 14 15 20 28 32 32 32 34 37 41 45 47 46 47 44 46 52 56 41 39 22 36 43 54 60 57 47
20 24 23 19 22 26 29 33 37 32 31 34 38 45 46 46 45 45 45 46 48 47 52 62 60 49 28 32 36 44 41 40
24 20 27 21 23 28 33 30 25 29 38 43 40 40 43 45 46 48 50 52 53 53 56 52 55 58 61 50 49 36 41 44
Wind_Direction_850mb
193 351 315 327 303 355 314 312 303 306 109 128 87 78 68 59 32 4 303 181 176 186 185 188 194 199 200 206 216 225 231 225
142 221 227 227 342 308 308 283 288 2 71 86 65 51 64 61 41 24 333 187 170 188 186 190 193 201 202 205 217 223 231 235
290 275 13 336 311 312 313 282 314 289 95 117 115 82 55 71 60 58 343 205 179 182 186 190 193 198 199 200 213 218 226 230
290 285 94 339 297 270 285 290 292 308 53 356 11 87 80 88 80 80 26 330 322 120 162 179 188 195 201 200 209 214 215 216
305 97 109 218 0 351 306 289 289 288 126 236 141 98 61 61 91 83 305 254 298 21 62 118 298 302 200 204 202 206 209 213
284 319 329 315 311 309 304 303 311 304 160 73 280 128 115 81 53 89 175 198 203 136 98 179 210 247 189 196 200 200 203 207
304 312 315 315 307 299 289 283 285 299 312 315 336 87 99 95 120 158 192 212 185 209 129 154 187 189 200 195 200 201 197 181
273 274 275 278 288 278 272 268 276 276 282 287 294 118 151 158 207 201 193 247 179 127 152 165 172 171 183 185 197 185 171 163
294 311 306 289 275 288 327 322 324 301 309 295 289 331 327 219 169 259 195 178 200 180 163 167 172 179 191 186 178 177 185 200
274 280 269 277 312 334 307 300 283 306 318 328 329 3 326 352 167 188 177 241 236 227 170 169 175 180 192 201 193 186 241 242
279 266 264 270 13 9 35 345 2 348 356 360 341 291 29 29 35 349 105 212 239 233 144 150 152 174 159 198 209 214 202 212
266 288 288 348 72 23 357 270 21 360 356 359 352 18 29 360 352 7 326 229 232 215 188 169 171 178 171 169 173 173 176 173
262 254 267 25 59 16 268 44 357 11 355 355 353 5 9 33 6 169 287 333 277 215 193 205 196 196 198 195 181 176 183 178
245 256 261 41 327 323 48 14 1 343 336 327 324 325 334 340 338 317 306 305 291 298 278 219 206 181 196 207 205 198 194 201
306 335 39 350 9 44 354 331 320 328 323 321 313 313 315 310 309 315 313 302 297 295 305 309 253 271 223 267 197 229 216 213
256 272 332 322 321 315 298 299 323 312 312 310 308 308 312 317 313 308 304 302 299 302 299 291 262 235 214 226 211 237 232 229
267 273 280 274 289 343 334 310 305 300 301 302 304 309 310 307 308 309 308 304 300 298 303 290 270 269 201 202 210 225 236 236
269 275 286 313 317 312 308 303 299 298 295 299 302 301 300 300 302 307 309 310 308 308 302 293 280 268 273 242 230 232 233 225
264 291 302 293 296 301 296 290 290 293 296 297 298 300 302 307 306 303 306 306 306 304 295 300 271 265 261 266 241 228 233 223